Pisa, Italy

11:00 AM CEST on April 20, 2018 (GMT +0200)
San Giusto

Weather History for LIRP - April, 2018

Change the Weather History Date:

Monday, April 16, 2018

  Actual Average Record
Temperature  
Mean Temperature 59 °F -  
Max Temperature 68 °F 68 °F 140 °F (1998)
Min Temperature 50 °F 48 °F 39 °F (2008)
Degree Days  
Heating Degree Days 6    
Growing Degree Days 9 (Base 50)    
Moisture  
Dew Point 54 °F    
Average Humidity 86    
Maximum Humidity 100    
Minimum Humidity 55    
Precipitation  
Precipitation 0.00 in 0.09 in - ()
Sea Level Pressure  
Sea Level Pressure 29.82 in    
Wind  
Wind Speed 5 mph ()    
Max Wind Speed 15 mph    
Max Gust Speed -    
Visibility 7.8 miles    
Events Rain    
Averages and records for this station are not official NWS values.
T = Trace of Precipitation, MM = Missing Value Source: Averaged Metar Reports

Daily Weather History Graph

Daily Weather History Graph

Search for Another Location

Airport or City:

Astronomy

Apr. 16, 2018 Rise Set
Actual Time 6:34 AM CEST 8:02 PM CEST
Civil Twilight 6:04 AM CEST 8:32 PM CEST
Nautical Twilight 5:28 AM CEST 9:09 PM CEST
Astronomical Twilight 4:49 AM CEST 9:48 PM CEST
Moon 7:08 AM CEST (4/16) 8:32 PM CEST (4/16)
Length of Visible Light 14h 28m
Length of Day
13h 28m
New Moon, 0% of the Moon is Illuminated
Apr 16
New Moon
Apr 22
First Quarter
Apr 30
Full
May 8
Last Quarter
May 15
New

Hourly Weather History & Observations

Time (CEST) Temp. Dew Point Humidity Pressure Visibility Wind Dir Wind Speed Gust Speed Precip Events Conditions
12:15 AM 57.2 °F 55.4 °F 94% 29.80 in 6.2 mi NE 5.8 mph - N/A Rain Light Rain
12:45 AM 55.4 °F 55.4 °F 100% 29.74 in 6.2 mi West 3.5 mph - N/A   Mostly Cloudy
1:15 AM 55.4 °F 55.4 °F 100% 29.71 in 6.2 mi West 4.6 mph - N/A   Mostly Cloudy
1:45 AM 53.6 °F 53.6 °F 100% 29.71 in 6.2 mi SE 3.5 mph - N/A   Mostly Cloudy
2:00 AM 54 °F 54 °F 99% 29.73 in 6 mi SE 3.5 mph - -   Partly Cloudy
2:15 AM 53.6 °F 53.6 °F 100% 29.71 in 6.2 mi South 2.3 mph - N/A   Mostly Cloudy
2:45 AM 53.6 °F 53.6 °F 100% 29.71 in 6.2 mi NE 3.5 mph - N/A   Mostly Cloudy
3:15 AM 53.6 °F 53.6 °F 100% 29.71 in 6.2 mi ESE 3.5 mph - N/A   Mostly Cloudy
3:45 AM 53.6 °F 53.6 °F 100% 29.71 in 6.2 mi East 3.5 mph - N/A   Mostly Cloudy
4:15 AM 53.6 °F 53.6 °F 100% 29.71 in 6.2 mi ESE 5.8 mph - N/A   Mostly Cloudy
4:45 AM 51.8 °F 51.8 °F 100% 29.71 in - SE 4.6 mph - N/A   Clear
5:00 AM 53 °F 52 °F 95% 29.73 in 6 mi SE 4.6 mph - -  
5:15 AM 51.8 °F 51.8 °F 100% 29.71 in - SE 5.8 mph - N/A   Clear
5:45 AM 51.8 °F 51.8 °F 100% 29.74 in 6.2 mi NNE 3.5 mph - N/A   Mostly Cloudy
6:15 AM 51.8 °F 51.8 °F 100% 29.74 in 6.2 mi NNE 3.5 mph - N/A   Mostly Cloudy
6:45 AM 51.8 °F 51.8 °F 100% 29.74 in 6.2 mi ESE 4.6 mph - N/A   Mostly Cloudy
7:15 AM 50.0 °F 50.0 °F 100% 29.77 in - NNW 2.3 mph - N/A   Clear
7:45 AM 51.8 °F 51.8 °F 100% 29.77 in - South 1.2 mph - N/A   Clear
8:00 AM 52 °F 51 °F 96% 29.79 in 12 mi South 1.2 mph - -  
8:15 AM 53.6 °F 51.8 °F 94% 29.77 in - East 3.5 mph - N/A   Clear
8:45 AM 55.4 °F 53.6 °F 94% 29.77 in - ESE 3.5 mph - N/A   Clear
9:15 AM 57.2 °F 55.4 °F 94% 29.80 in - SSE 3.5 mph - N/A   Clear
9:45 AM 59.0 °F 55.4 °F 88% 29.80 in - Variable 2.3 mph - N/A   Clear
10:15 AM 60.8 °F 55.4 °F 82% 29.80 in - Variable 2.3 mph - N/A   Clear
10:45 AM 64.4 °F 57.2 °F 77% 29.80 in - ESE 2.3 mph - N/A   Clear
11:15 AM 66.2 °F 59.0 °F 78% 29.80 in - SW 6.9 mph - N/A   Clear
11:45 AM 66.2 °F 57.2 °F 73% 29.80 in - SW 8.1 mph - N/A   Clear
12:15 PM 66.2 °F 55.4 °F 68% 29.80 in 6.2 mi West 10.4 mph - N/A   Partly Cloudy
12:45 PM 66.2 °F 55.4 °F 68% 29.80 in 6.2 mi West 12.7 mph - N/A   Partly Cloudy
1:15 PM 66.2 °F 55.4 °F 68% 29.80 in 6.2 mi West 12.7 mph - N/A   Partly Cloudy
1:45 PM 66.2 °F 55.4 °F 68% 29.80 in - West 12.7 mph - N/A   Clear
2:00 PM 66 °F 56 °F 62% 29.82 in 16 mi West 12.7 mph - -  
2:15 PM 64.4 °F 55.4 °F 73% 29.83 in - West 13.8 mph - N/A   Clear
2:45 PM 66.2 °F 53.6 °F 64% 29.83 in - West 15.0 mph - N/A   Clear
3:15 PM 66.2 °F 51.8 °F 60% 29.86 in - West 13.8 mph - N/A   Clear
3:45 PM 66.2 °F 53.6 °F 64% 29.86 in - West 13.8 mph - N/A   Clear
4:15 PM 66.2 °F 53.6 °F 64% 29.86 in - West 11.5 mph - N/A   Clear
4:45 PM 66.2 °F 53.6 °F 64% 29.86 in - West 10.4 mph - N/A   Clear
5:00 PM 66 °F 54 °F 55% 29.88 in 16 mi West 10.4 mph - -  
5:15 PM 66.2 °F 53.6 °F 64% 29.86 in - West 11.5 mph - N/A   Clear
5:45 PM 64.4 °F 53.6 °F 68% 29.86 in - West 11.5 mph - N/A   Clear
6:45 PM 62.6 °F 53.6 °F 72% 29.89 in - WNW 9.2 mph - N/A   Clear
7:15 PM 62.6 °F 55.4 °F 77% 29.89 in - West 8.1 mph - N/A   Clear
7:45 PM 60.8 °F 55.4 °F 82% 29.89 in - WNW 6.9 mph - N/A   Clear
8:00 PM 61 °F 55 °F 73% 29.91 in 16 mi WNW 6.9 mph - -   Mostly Cloudy
8:15 PM 60.8 °F 57.2 °F 88% 29.89 in - West 4.6 mph - N/A   Clear
8:45 PM 59.0 °F 57.2 °F 94% 29.92 in - NW 4.6 mph - N/A   Clear
9:15 PM 59.0 °F 57.2 °F 94% 29.95 in - West 4.6 mph - N/A   Clear
9:45 PM 57.2 °F 55.4 °F 94% 29.95 in - SW 3.5 mph - N/A   Clear
10:15 PM 55.4 °F 55.4 °F 100% 29.98 in - WSW 4.6 mph - N/A   Clear
10:45 PM 55.4 °F 53.6 °F 94% 29.98 in - WSW 4.6 mph - N/A   Clear
11:00 PM 55 °F 54 °F 97% 29.99 in 6 mi WSW 4.6 mph - -   Clear
11:15 PM 55.4 °F 53.6 °F 94% 29.98 in - WSW 2.3 mph - N/A   Clear
11:45 PM 55.4 °F 53.6 °F 94% 29.98 in - SSE 2.3 mph - N/A   Clear